| time (UTC) | temp C | wind direction | speed KPH | gust KPH | rain 1hr cm | rain 24hr cm | rain mn cm | humidity % | barometer mb |
| 20260903171704 | 33 | 171 | 9.7 | 19.3 | 0.00 | 0.00 | 0.00 | 63 | 1014.2 |
| 20260903171508 | 33 | 184 | 9.7 | 19.3 | 0.00 | 0.00 | 0.00 | 64 | 1013.9 |
| 20260903170804 | 32 | 176 | 6.4 | 16.1 | 0.00 | 0.00 | 0.00 | 65 | 1014.3 |
| 20260903170105 | 32 | 146 | 8.0 | 16.1 | 0.00 | 0.00 | 0.00 | 67 | 1014.0 |
| 20260903165904 | 32 | 145 | 6.4 | 14.5 | 0.00 | 0.00 | 0.00 | 67 | 1014.3 |
| 20260903165004 | 32 | 149 | 4.8 | 12.9 | 0.00 | 0.00 | 0.00 | 68 | 1014.6 |
| 20260903164607 | 31 | 122 | 4.8 | 12.9 | 0.00 | 0.00 | 0.00 | 69 | 1014.1 |
| 20260903164104 | 32 | 165 | 8.0 | 12.9 | 0.00 | 0.00 | 0.00 | 67 | 1014.6 |
| 20260903163204 | 32 | 138 | 8.0 | 16.1 | 0.00 | 0.00 | 0.00 | 67 | 1014.7 |
| 20260903163002 | 32 | 115 | 6.4 | 16.1 | 0.00 | 0.00 | 0.00 | 68 | 1014.4 |
| 20260903162306 | 32 | 159 | 8.0 | 14.5 | 0.00 | 0.00 | 0.00 | 68 | 1014.6 |
| 20260903161503 | 31 | 163 | 8.0 | 16.1 | 0.00 | 0.00 | 0.00 | 69 | 1014.4 |
| 20260903161404 | 31 | 145 | 8.0 | 16.1 | 0.00 | 0.00 | 0.00 | 70 | 1014.7 |
| 20260903160504 | 31 | 174 | 6.4 | 14.5 | 0.00 | 0.00 | 0.00 | 71 | 1014.7 |
| 20260903160003 | 31 | 177 | 6.4 | 19.3 | 0.00 | 0.00 | 0.00 | 70 | 1014.3 |
| 20260903155604 | 31 | 158 | 8.0 | 19.3 | 0.00 | 0.00 | 0.00 | 71 | 1014.7 |
| 20260903154704 | 30 | 147 | 6.4 | 12.9 | 0.00 | 0.00 | 0.00 | 73 | 1014.6 |
| 20260903154503 | 30 | 136 | 4.8 | 12.9 | 0.00 | 0.00 | 0.00 | 73 | 1014.4 |
| 20260903153804 | 30 | 166 | 8.0 | 14.5 | 0.00 | 0.00 | 0.00 | 73 | 1014.6 |
| 20260903153003 | 30 | 194 | 6.4 | 16.1 | 0.00 | 0.00 | 0.00 | 72 | 1014.3 |
| 20260903152904 | 30 | 159 | 9.7 | 16.1 | 0.00 | 0.00 | 0.00 | 72 | 1014.5 |
| 20260903152004 | 30 | 144 | 8.0 | 14.5 | 0.00 | 0.00 | 0.00 | 73 | 1014.5 |
| 20260903151505 | 30 | 159 | 9.7 | 14.5 | 0.00 | 0.00 | 0.00 | 73 | 1014.1 |
| 20260903151104 | 30 | 158 | 8.0 | 12.9 | 0.00 | 0.00 | 0.00 | 72 | 1014.5 |
| 20260903150204 | 30 | 139 | 6.4 | 16.1 | 0.00 | 0.00 | 0.00 | 74 | 1014.5 |
| 20260903150003 | 30 | 177 | 6.4 | 12.9 | 0.00 | 0.00 | 0.00 | 74 | 1014.2 |
| 20260903145306 | 30 | 147 | 6.4 | 11.3 | 0.00 | 0.00 | 0.00 | 73 | 1014.6 |
| 20260903144505 | 30 | 163 | 4.8 | 12.9 | 0.00 | 0.00 | 0.00 | 75 | 1014.3 |
| 20260903144404 | 30 | 169 | 4.8 | 11.3 | 0.00 | 0.00 | 0.00 | 75 | 1014.6 |
| 20260903143504 | 29 | 169 | 4.8 | 9.7 | 0.00 | 0.00 | 0.00 | 76 | 1014.7 |
| 20260903143006 | 28 | 135 | 4.8 | 9.7 | 0.00 | 0.00 | 0.00 | 77 | 1014.3 |
| 20260903142604 | 29 | 158 | 4.8 | 9.7 | 0.00 | 0.00 | 0.00 | 77 | 1014.7 |
| 20260903141704 | 28 | 148 | 3.2 | 11.3 | 0.00 | 0.00 | 0.00 | 80 | 1014.8 |
| 20260903141506 | 28 | 144 | 1.6 | 11.3 | 0.00 | 0.00 | 0.00 | 80 | 1014.5 |
| 20260903140804 | 28 | 151 | 4.8 | 11.3 | 0.00 | 0.00 | 0.00 | 83 | 1014.8 |
| 20260903140103 | 27 | 205 | 4.8 | 8.0 | 0.00 | 0.00 | 0.00 | 84 | 1014.6 |
| 20260903135904 | 27 | 167 | 4.8 | 8.0 | 0.00 | 0.00 | 0.00 | 84 | 1014.9 |
| 20260903135004 | 27 | 136 | 3.2 | 8.0 | 0.00 | 0.00 | 0.00 | 86 | 1014.9 |
| 20260903134505 | 26 | 86 | 1.6 | 8.0 | 0.00 | 0.00 | 0.00 | 86 | 1014.7 |
| 20260903134104 | 26 | 143 | 3.2 | 8.0 | 0.00 | 0.00 | 0.00 | 87 | 1015.0 |
| 20260903133003 | 26 | 127 | 3.2 | 6.4 | 0.00 | 0.00 | 0.00 | 89 | 1014.7 |
| 20260903132306 | 26 | 130 | 3.2 | 8.0 | 0.00 | 0.00 | 0.00 | 91 | 1015.0 |
| 20260903131611 | 25 | 102 | 1.6 | 6.4 | 0.00 | 0.00 | 0.00 | 92 | 1014.7 |
| 20260903131404 | 25 | 120 | 1.6 | 6.4 | 0.00 | 0.00 | 0.00 | 92 | 1014.9 |
| 20260903130504 | 25 | 265 | 1.6 | 4.8 | 0.00 | 0.00 | 0.00 | 94 | 1015.0 |
| 20260903130005 | 24 | 265 | 1.6 | 4.8 | 0.00 | 0.00 | 0.00 | 94 | 1014.7 |
| 20260903124704 | 24 | 52 | 0.0 | 1.6 | 0.00 | 0.00 | 0.00 | 94 | 1014.8 |
| 20260903124505 | 23 | 51 | 0.0 | 1.6 | 0.00 | 0.00 | 0.00 | 94 | 1014.6 |
| 20260903123003 | 23 | 355 | 0.0 | 0.0 | 0.00 | 0.00 | 0.00 | 93 | 1014.5 |
| 20260903122904 | 23 | 0 | 0.0 | 0.0 | 0.00 | 0.00 | 0.00 | 93 | 1014.7 |
| 20260903122004 | 24 | 0 | 0.0 | 0.0 | 0.00 | 0.00 | 0.00 | 93 | 1014.7 |
| 20260903121504 | 23 | 82 | 0.0 | 0.0 | 0.00 | 0.00 | 0.00 | 93 | 1014.4 |
| 20260903121104 | 24 | 0 | 0.0 | 0.0 | 0.00 | 0.00 | 0.00 | 93 | 1014.6 |
| 20260903120204 | 24 | 0 | 0.0 | 0.0 | 0.00 | 0.00 | 0.00 | 93 | 1014.5 |
| 20260903115305 | 24 | 0 | 0.0 | 0.0 | 0.00 | 0.00 | 0.00 | 93 | 1014.4 |
| 20260903114605 | 23 | 82 | 0.0 | 0.0 | 0.00 | 0.00 | 0.00 | 93 | 1014.1 |
| 20260903113504 | 24 | 0 | 0.0 | 0.0 | 0.00 | 0.00 | 0.00 | 93 | 1014.3 |
| 20260903113003 | 23 | 84 | 0.0 | 0.0 | 0.00 | 0.00 | 0.00 | 93 | 1014.0 |
| 20260903112604 | 24 | 0 | 0.0 | 0.0 | 0.00 | 0.00 | 0.00 | 93 | 1014.2 |
| 20260903111505 | 23 | 65 | 0.0 | 0.0 | 0.00 | 0.00 | 0.00 | 92 | 1013.9 |
| 20260903110106 | 23 | 105 | 0.0 | 0.0 | 0.00 | 0.00 | 0.00 | 92 | 1013.9 |
| 20260903105904 | 24 | 0 | 0.0 | 0.0 | 0.00 | 0.00 | 0.00 | 92 | 1014.2 |
| 20260903104503 | 23 | 105 | 0.0 | 0.0 | 0.00 | 0.00 | 0.00 | 93 | 1013.8 |
| 20260903104104 | 24 | 114 | 0.0 | 3.2 | 0.00 | 0.00 | 0.00 | 93 | 1014.1 |
| 20260903103204 | 24 | 129 | 1.6 | 4.8 | 0.00 | 0.00 | 0.00 | 93 | 1014.1 |
| 20260903103103 | 23 | 134 | 0.0 | 4.8 | 0.00 | 0.00 | 0.00 | 93 | 1013.8 |
| 20260903102306 | 24 | 133 | 1.6 | 3.2 | 0.00 | 0.00 | 0.00 | 93 | 1014.0 |
| 20260903101604 | 23 | 132 | 0.0 | 3.2 | 0.00 | 0.00 | 0.00 | 93 | 1013.7 |
| 20260903100504 | 24 | 133 | 0.0 | 4.8 | 0.00 | 0.00 | 0.00 | 92 | 1014.1 |
| 20260903100004 | 23 | 114 | 0.0 | 3.2 | 0.00 | 0.00 | 0.00 | 92 | 1013.8 |
| 20260903095604 | 24 | 109 | 1.6 | 3.2 | 0.00 | 0.00 | 0.00 | 92 | 1014.1 |
| 20260903094704 | 24 | 64 | 0.0 | 3.2 | 0.00 | 0.00 | 0.00 | 92 | 1013.9 |
| 20260903094611 | 23 | 71 | 0.0 | 1.6 | 0.00 | 0.00 | 0.00 | 92 | 1013.6 |
| 20260903093007 | 24 | 61 | 0.0 | 3.2 | 0.00 | 0.00 | 0.00 | 92 | 1013.7 |
| 20260903092904 | 24 | 61 | 1.6 | 4.8 | 0.00 | 0.00 | 0.00 | 92 | 1014.0 |
| 20260903092004 | 24 | 61 | 0.0 | 4.8 | 0.00 | 0.00 | 0.00 | 91 | 1013.9 |
| 20260903091516 | 24 | 61 | 0.0 | 3.2 | 0.00 | 0.00 | 0.00 | 91 | 1013.6 |
| 20260903091104 | 24 | 62 | 0.0 | 1.6 | 0.00 | 0.00 | 0.00 | 91 | 1013.9 |
| 20260903090204 | 24 | 61 | 0.0 | 3.2 | 0.00 | 0.00 | 0.00 | 91 | 1013.9 |
| 20260903090005 | 24 | 61 | 0.0 | 3.2 | 0.00 | 0.00 | 0.00 | 91 | 1013.6 |
| 20260903085306 | 24 | 61 | 0.0 | 3.2 | 0.00 | 0.00 | 0.00 | 91 | 1013.7 |
| 20260903084605 | 24 | 61 | 0.0 | 4.8 | 0.00 | 0.00 | 0.00 | 91 | 1013.4 |
| 20260903084404 | 24 | 43 | 1.6 | 4.8 | 0.00 | 0.00 | 0.00 | 91 | 1013.6 |
| 20260903083103 | 24 | 45 | 0.0 | 1.6 | 0.00 | 0.00 | 0.00 | 90 | 1013.3 |
| 20260903082604 | 25 | 45 | 0.0 | 1.6 | 0.00 | 0.00 | 0.00 | 90 | 1013.6 |
| 20260903081513 | 24 | 45 | 0.0 | 3.2 | 0.00 | 0.00 | 0.00 | 89 | 1013.3 |
| 20260903080804 | 25 | 96 | 0.0 | 3.2 | 0.00 | 0.00 | 0.00 | 89 | 1013.5 |
| 20260903080003 | 25 | 145 | 0.0 | 1.6 | 0.00 | 0.00 | 0.00 | 88 | 1013.2 |
| 20260903075904 | 25 | 146 | 0.0 | 1.6 | 0.00 | 0.00 | 0.00 | 88 | 1013.4 |
| 20260903075004 | 25 | 146 | 0.0 | 1.6 | 0.00 | 0.00 | 0.00 | 88 | 1013.3 |
| 20260903074604 | 25 | 146 | 0.0 | 1.6 | 0.00 | 0.00 | 0.00 | 88 | 1013.1 |
| 20260903074104 | 25 | 146 | 0.0 | 1.6 | 0.00 | 0.00 | 0.00 | 87 | 1013.3 |
| 20260903073204 | 25 | 146 | 0.0 | 1.6 | 0.00 | 0.00 | 0.00 | 86 | 1013.4 |
| 20260903073008 | 25 | 146 | 0.0 | 1.6 | 0.00 | 0.00 | 0.00 | 86 | 1013.1 |
| 20260903071604 | 25 | 146 | 0.0 | 3.2 | 0.00 | 0.00 | 0.00 | 86 | 1013.1 |
| 20260903071404 | 25 | 136 | 0.0 | 3.2 | 0.00 | 0.00 | 0.00 | 87 | 1013.4 |
| 20260903070504 | 25 | 143 | 1.6 | 4.8 | 0.00 | 0.00 | 0.00 | 87 | 1013.4 |
| 20260903070105 | 25 | 136 | 0.0 | 4.8 | 0.00 | 0.00 | 0.00 | 86 | 1013.1 |
| 20260903065604 | 25 | 147 | 1.6 | 3.2 | 0.00 | 0.00 | 0.00 | 86 | 1013.5 |
| 20260903064704 | 25 | 134 | 1.6 | 4.8 | 0.00 | 0.00 | 0.00 | 86 | 1013.5 |
| 20260903064504 | 25 | 139 | 0.0 | 4.8 | 0.00 | 0.00 | 0.00 | 86 | 1013.2 |
| 20260903063005 | 25 | 156 | 1.6 | 6.4 | 0.00 | 0.00 | 0.00 | 85 | 1013.1 |
| 20260903062904 | 26 | 144 | 1.6 | 6.4 | 0.00 | 0.00 | 0.00 | 85 | 1013.4 |
| 20260903062004 | 26 | 144 | 1.6 | 4.8 | 0.00 | 0.00 | 0.00 | 84 | 1013.4 |
| 20260903061506 | 25 | 148 | 1.6 | 4.8 | 0.00 | 0.00 | 0.00 | 84 | 1013.3 |
| 20260903061104 | 26 | 162 | 1.6 | 4.8 | 0.00 | 0.00 | 0.00 | 84 | 1013.5 |
| 20260903060204 | 26 | 168 | 1.6 | 4.8 | 0.00 | 0.00 | 0.00 | 83 | 1013.5 |
| 20260903060004 | 26 | 168 | 0.0 | 4.8 | 0.00 | 0.00 | 0.00 | 83 | 1013.3 |
| 20260903054604 | 26 | 161 | 0.0 | 4.8 | 0.00 | 0.00 | 0.00 | 82 | 1013.2 |
| 20260903054404 | 26 | 144 | 1.6 | 4.8 | 0.00 | 0.00 | 0.00 | 82 | 1013.5 |
| 20260903053008 | 26 | 146 | 0.0 | 4.8 | 0.00 | 0.00 | 0.00 | 81 | 1013.2 |
| 20260903052604 | 26 | 173 | 3.2 | 6.4 | 0.00 | 0.00 | 0.00 | 81 | 1013.6 |
| 20260903051704 | 26 | 158 | 3.2 | 4.8 | 0.00 | 0.00 | 0.00 | 81 | 1013.6 |
| 20260903051505 | 26 | 162 | 1.6 | 4.8 | 0.00 | 0.00 | 0.00 | 80 | 1013.3 |
| 20260903050804 | 26 | 164 | 1.6 | 4.8 | 0.00 | 0.00 | 0.00 | 80 | 1013.5 |
| 20260903050104 | 26 | 166 | 1.6 | 4.8 | 0.00 | 0.00 | 0.00 | 79 | 1013.2 |
| 20260903045904 | 27 | 136 | 1.6 | 4.8 | 0.00 | 0.00 | 0.00 | 79 | 1013.4 |
| 20260903045004 | 27 | 163 | 3.2 | 8.0 | 0.00 | 0.00 | 0.00 | 78 | 1013.4 |
| 20260903044605 | 26 | 167 | 1.6 | 8.0 | 0.00 | 0.00 | 0.00 | 78 | 1013.1 |
| 20260903044104 | 27 | 152 | 3.2 | 8.0 | 0.00 | 0.00 | 0.00 | 78 | 1013.4 |
| 20260903043103 | 27 | 167 | 1.6 | 9.7 | 0.00 | 0.00 | 0.00 | 77 | 1013.0 |
| 20260903042306 | 27 | 142 | 3.2 | 9.7 | 0.00 | 0.00 | 0.00 | 77 | 1013.3 |
| 20260903041504 | 27 | 141 | 3.2 | 8.0 | 0.00 | 0.00 | 0.00 | 77 | 1013.1 |
| 20260903040504 | 27 | 131 | 1.6 | 6.4 | 0.00 | 0.00 | 0.00 | 76 | 1013.3 |
| 20260903040105 | 27 | 136 | 0.0 | 8.0 | 0.00 | 0.00 | 0.00 | 76 | 1013.0 |
| 20260903035604 | 27 | 110 | 1.6 | 8.0 | 0.00 | 0.00 | 0.00 | 76 | 1013.3 |
| 20260903034704 | 27 | 119 | 1.6 | 8.0 | 0.00 | 0.00 | 0.00 | 75 | 1013.3 |
| 20260903034503 | 27 | 135 | 1.6 | 6.4 | 0.00 | 0.00 | 0.00 | 75 | 1013.0 |
| 20260903033804 | 27 | 130 | 1.6 | 8.0 | 0.00 | 0.00 | 0.00 | 75 | 1013.4 |
| 20260903033008 | 27 | 148 | 0.0 | 6.4 | 0.00 | 0.00 | 0.00 | 75 | 1013.1 |
| 20260903032904 | 27 | 138 | 3.2 | 4.8 | 0.00 | 0.00 | 0.00 | 75 | 1013.4 |
| 20260903032003 | 28 | 145 | 3.2 | 8.0 | 0.00 | 0.00 | 0.00 | 74 | 1013.4 |
| 20260903031502 | 27 | 153 | 3.2 | 9.7 | 0.00 | 0.00 | 0.00 | 74 | 1013.1 |
| 20260903031103 | 28 | 149 | 3.2 | 9.7 | 0.00 | 0.00 | 0.00 | 73 | 1013.5 |
| 20260903030203 | 28 | 142 | 3.2 | 6.4 | 0.00 | 0.00 | 0.00 | 73 | 1013.5 |
| 20260903030008 | 28 | 159 | 1.6 | 8.0 | 0.00 | 0.00 | 0.00 | 73 | 1013.2 |
| 20260903025306 | 28 | 149 | 3.2 | 8.0 | 0.00 | 0.00 | 0.00 | 73 | 1013.6 |
| 20260903024502 | 28 | 134 | 3.2 | 9.7 | 0.00 | 0.00 | 0.00 | 72 | 1013.2 |
| 20260903023504 | 28 | 149 | 3.2 | 8.0 | 0.00 | 0.00 | 0.00 | 72 | 1013.4 |
| 20260903023007 | 28 | 142 | 4.8 | 8.0 | 0.00 | 0.00 | 0.00 | 71 | 1013.1 |
| 20260903021704 | 28 | 144 | 1.6 | 4.8 | 0.00 | 0.00 | 0.00 | 70 | 1013.2 |
| 20260903021603 | 28 | 159 | 0.0 | 4.8 | 0.00 | 0.00 | 0.00 | 70 | 1012.9 |
| 20260903020803 | 29 | 151 | 1.6 | 4.8 | 0.00 | 0.00 | 0.00 | 70 | 1013.1 |
| 20260903020006 | 29 | 166 | 0.0 | 4.8 | 0.00 | 0.00 | 0.00 | 69 | 1012.7 |
| 20260903015904 | 29 | 146 | 3.2 | 4.8 | 0.00 | 0.00 | 0.00 | 69 | 1013.0 |
| 20260903015004 | 29 | 134 | 1.6 | 4.8 | 0.00 | 0.00 | 0.00 | 69 | 1012.9 |
| 20260903014605 | 29 | 135 | 1.6 | 8.0 | 0.00 | 0.00 | 0.00 | 69 | 1012.6 |
| 20260903013203 | 30 | 138 | 1.6 | 6.4 | 0.00 | 0.00 | 0.00 | 68 | 1012.7 |
| 20260903013004 | 30 | 156 | 1.6 | 4.8 | 0.00 | 0.00 | 0.00 | 68 | 1012.4 |
| 20260903012306 | 30 | 137 | 1.6 | 6.4 | 0.00 | 0.00 | 0.00 | 68 | 1012.7 |
| 20260903011502 | 30 | 128 | 1.6 | 6.4 | 0.00 | 0.00 | 0.00 | 68 | 1012.4 |
| 20260903011404 | 30 | 146 | 3.2 | 6.4 | 0.00 | 0.00 | 0.00 | 67 | 1012.8 |
| 20260903010503 | 30 | 148 | 3.2 | 8.0 | 0.00 | 0.00 | 0.00 | 67 | 1012.7 |
| 20260903005603 | 30 | 149 | 4.8 | 8.0 | 0.00 | 0.00 | 0.00 | 66 | 1012.7 |
| 20260903004703 | 31 | 153 | 6.4 | 12.9 | 0.00 | 0.00 | 0.00 | 66 | 1012.6 |
| 20260903004507 | 30 | 160 | 3.2 | 12.9 | 0.00 | 0.00 | 0.00 | 66 | 1012.3 |
| 20260903003106 | 31 | 150 | 4.8 | 11.3 | 0.00 | 0.00 | 0.00 | 64 | 1012.2 |
| 20260903002904 | 31 | 139 | 6.4 | 11.3 | 0.00 | 0.00 | 0.00 | 64 | 1012.5 |
| 20260903002004 | 31 | 153 | 9.7 | 17.7 | 0.00 | 0.00 | 0.00 | 64 | 1012.5 |
| 20260903001504 | 31 | 152 | 11.3 | 17.7 | 0.00 | 0.00 | 0.00 | 63 | 1012.1 |
| 20260903001104 | 31 | 169 | 11.3 | 20.9 | 0.00 | 0.00 | 0.00 | 63 | 1012.4 |
| 20260903000204 | 31 | 172 | 12.9 | 19.3 | 0.00 | 0.00 | 0.00 | 62 | 1012.3 |
| 20260903000008 | 31 | 186 | 12.9 | 19.3 | 0.00 | 0.00 | 0.00 | 62 | 1011.9 |
| 20260902235305 | 32 | 157 | 11.3 | 19.3 | 0.00 | 0.00 | 0.00 | 62 | 1012.2 |
| 20260902234609 | 32 | 164 | 14.5 | 20.9 | 0.00 | 0.00 | 0.00 | 62 | 1012.0 |
| 20260902234403 | 32 | 164 | 11.3 | 20.9 | 0.00 | 0.00 | 0.00 | 62 | 1012.2 |
| 20260902233503 | 32 | 151 | 9.7 | 19.3 | 0.00 | 0.00 | 0.00 | 61 | 1012.2 |
| 20260902233008 | 32 | 171 | 9.7 | 19.3 | 0.00 | 0.00 | 0.00 | 61 | 1011.7 |
| 20260902232604 | 32 | 153 | 9.7 | 17.7 | 0.00 | 0.00 | 0.00 | 60 | 1012.0 |
| 20260902231704 | 33 | 181 | 12.9 | 22.5 | 0.00 | 0.00 | 0.00 | 60 | 1012.2 |
| 20260902231604 | 32 | 156 | 12.9 | 22.5 | 0.00 | 0.00 | 0.00 | 60 | 1011.8 |
| 20260902230803 | 33 | 174 | 11.3 | 17.7 | 0.00 | 0.00 | 0.00 | 58 | 1012.1 |
| 20260902230105 | 33 | 184 | 9.7 | 22.5 | 0.00 | 0.00 | 0.00 | 57 | 1011.8 |
| 20260902225904 | 34 | 162 | 12.9 | 22.5 | 0.00 | 0.00 | 0.00 | 58 | 1012.1 |
| 20260902224505 | 34 | 161 | 8.0 | 24.1 | 0.00 | 0.00 | 0.00 | 55 | 1011.7 |
| 20260902224103 | 35 | 163 | 14.5 | 24.1 | 0.00 | 0.00 | 0.00 | 55 | 1012.0 |
| 20260902223203 | 35 | 170 | 12.9 | 22.5 | 0.00 | 0.00 | 0.00 | 54 | 1011.9 |
| 20260902223004 | 35 | 149 | 11.3 | 22.5 | 0.00 | 0.00 | 0.00 | 54 | 1011.6 |
| 20260902221509 | 35 | 152 | 11.3 | 17.7 | 0.00 | 0.00 | 0.00 | 52 | 1011.4 |
| 20260902221403 | 35 | 152 | 11.3 | 17.7 | 0.00 | 0.00 | 0.00 | 52 | 1011.7 |
| 20260902220503 | 36 | 142 | 11.3 | 19.3 | 0.00 | 0.00 | 0.00 | 51 | 1011.9 |
| 20260902220106 | 36 | 121 | 8.0 | 19.3 | 0.00 | 0.00 | 0.00 | 51 | 1011.6 |
| 20260902215603 | 36 | 156 | 11.3 | 19.3 | 0.00 | 0.00 | 0.00 | 50 | 1012.0 |
| 20260902214703 | 36 | 165 | 9.7 | 22.5 | 0.00 | 0.00 | 0.00 | 49 | 1012.0 |
| 20260902214606 | 36 | 155 | 9.7 | 22.5 | 0.00 | 0.00 | 0.00 | 49 | 1011.6 |
| 20260902213004 | 36 | 111 | 4.8 | 16.1 | 0.00 | 0.00 | 0.00 | 48 | 1011.8 |
| 20260902212903 | 36 | 144 | 9.7 | 16.1 | 0.00 | 0.00 | 0.00 | 47 | 1012.1 |
| 20260902212003 | 36 | 141 | 8.0 | 19.3 | 0.00 | 0.00 | 0.00 | 47 | 1012.2 |
| 20260902211503 | 36 | 132 | 11.3 | 19.3 | 0.00 | 0.00 | 0.00 | 47 | 1012.0 |
| 20260902211103 | 36 | 136 | 8.0 | 17.7 | 0.00 | 0.00 | 0.00 | 47 | 1012.4 |
| 20260902210203 | 36 | 148 | 11.3 | 17.7 | 0.00 | 0.00 | 0.00 | 47 | 1012.6 |
| 20260902210106 | 36 | 172 | 9.7 | 19.3 | 0.00 | 0.00 | 0.00 | 47 | 1012.3 |
| 20260902205306 | 36 | 126 | 9.7 | 19.3 | 0.00 | 0.00 | 0.00 | 48 | 1012.8 |
| 20260902204509 | 36 | 86 | 11.3 | 17.7 | 0.00 | 0.00 | 0.00 | 47 | 1012.6 |
| 20260902204403 | 36 | 139 | 9.7 | 19.3 | 0.00 | 0.00 | 0.00 | 48 | 1012.9 |
| 20260902203503 | 36 | 152 | 9.7 | 20.9 | 0.00 | 0.00 | 0.00 | 46 | 1013.1 |
| 20260902203105 | 36 | 127 | 9.7 | 25.7 | 0.00 | 0.00 | 0.00 | 46 | 1012.7 |
| 20260902202603 | 36 | 148 | 9.7 | 24.1 | 0.00 | 0.00 | 0.00 | 47 | 1013.1 |
| 20260902201703 | 36 | 161 | 12.9 | 22.5 | 0.00 | 0.00 | 0.00 | 47 | 1013.2 |
| 20260902201611 | 36 | 183 | 11.3 | 22.5 | 0.00 | 0.00 | 0.00 | 47 | 1012.8 |
| 20260902200803 | 36 | 160 | 12.9 | 22.5 | 0.00 | 0.00 | 0.00 | 47 | 1013.3 |
| 20260902200009 | 36 | 137 | 12.9 | 22.5 | 0.00 | 0.00 | 0.00 | 46 | 1013.0 |
| 20260902195003 | 36 | 153 | 11.3 | 19.3 | 0.00 | 0.00 | 0.00 | 47 | 1013.3 |
| 20260902194605 | 36 | 163 | 9.7 | 19.3 | 0.00 | 0.00 | 0.00 | 46 | 1013.1 |
| 20260902194103 | 36 | 142 | 9.7 | 19.3 | 0.00 | 0.00 | 0.00 | 49 | 1013.5 |
| 20260902193203 | 36 | 165 | 9.7 | 17.7 | 0.00 | 0.00 | 0.00 | 51 | 1013.8 |
| 20260902193004 | 36 | 161 | 9.7 | 22.5 | 0.00 | 0.00 | 0.00 | 51 | 1013.4 |
| 20260902191505 | 36 | 181 | 8.0 | 19.3 | 0.00 | 0.00 | 0.00 | 48 | 1013.5 |
| 20260902191403 | 36 | 148 | 8.0 | 16.1 | 0.00 | 0.00 | 0.00 | 48 | 1013.9 |
| 20260902190503 | 36 | 158 | 8.0 | 19.3 | 0.00 | 0.00 | 0.00 | 51 | 1013.9 |
| 20260902190104 | 36 | 128 | 8.0 | 19.3 | 0.00 | 0.00 | 0.00 | 51 | 1013.5 |
| 20260902185603 | 36 | 151 | 8.0 | 16.1 | 0.00 | 0.00 | 0.00 | 52 | 1013.9 |
| 20260902184504 | 35 | 119 | 4.8 | 22.5 | 0.00 | 0.00 | 0.00 | 52 | 1013.7 |
| 20260902183803 | 35 | 141 | 6.4 | 16.1 | 0.00 | 0.00 | 0.00 | 53 | 1014.2 |
| 20260902183106 | 35 | 103 | 6.4 | 19.3 | 0.00 | 0.00 | 0.00 | 52 | 1014.1 |
| 20260902182903 | 35 | 140 | 8.0 | 24.1 | 0.00 | 0.00 | 0.00 | 52 | 1014.5 |
| 20260902182004 | 35 | 149 | 9.7 | 24.1 | 0.00 | 0.00 | 0.00 | 53 | 1014.7 |
| 20260902181506 | 35 | 145 | 8.0 | 20.9 | 0.00 | 0.00 | 0.00 | 54 | 1014.4 |
| 20260902180203 | 35 | 145 | 8.0 | 20.9 | 0.00 | 0.00 | 0.00 | 53 | 1015.0 |
| 20260902180008 | 35 | 158 | 9.7 | 17.7 | 0.00 | 0.00 | 0.00 | 53 | 1014.7 |
| 20260902174505 | 34 | 201 | 9.7 | 19.3 | 0.00 | 0.00 | 0.00 | 55 | 1015.0 |
| 20260902173503 | 33 | 146 | 11.3 | 24.1 | 0.00 | 0.00 | 0.00 | 56 | 1015.4 |
| 20260902173104 | 33 | 105 | 8.0 | 24.1 | 0.00 | 0.00 | 0.00 | 56 | 1015.1 |
| 20260902172603 | 33 | 138 | 9.7 | 16.1 | 0.00 | 0.00 | 0.00 | 56 | 1015.5 |